x

9439040 - Astoria, Or (asto3) Weather Station

9:54 - Sat 31st Jan 2015 All times are PST. -8 hours from GMT.

  • Wind
    3mph, 8mph gusts
  • Sea Temp 44°f
  • Luft Temp 41°f
  • Sea Pressure 1023.1mb
  • 9439040 - Astoria, Or
  • 9439040 - Astoria, Or

More Historic Weather Station data

Upgrade to MSW Pro to gain access to the past 30 days of data for over 8000 Wavebouys and Weather Stations around the globe.

Join Pro

Comparision Forecast

View Surf forecast
   
Sa 01/31 9:54 3 8 mph 1023.1mb 44f 41f
9:48 6 11 mph 1023.2mb 44f 40f
9:42 2 11 mph 1023.1mb 44f 40f
9:36 9 15 mph 1022.9mb 44f 40f
9:30 9 14 mph 1023.1mb 44f 40f
9:24 7 11 mph 1023mb 44f 40f
9:18 6 8 mph 1023mb 44f 39f
9:12 8 14 mph 1022.9mb 44f 39f
9:06 3 8 mph 1023mb 44f 39f
9:00 2 7 mph 1022.9mb 44f 39f
8:54 3 11 mph 1022.8mb 44f 39f
8:48 2 7 mph 1022.8mb 44f 39f
8:42 2 9 mph 1022.8mb 44f 39f
8:36 5 9 mph 1022.8mb 44f 39f
8:30 8 11 mph 1023.1mb 44f 39f
8:24 6 11 mph 1023.3mb 44f 39f
8:18 7 10 mph 1023.3mb 44f 39f
8:12 5 11 mph 1023.3mb 44f 39f
8:06 10 14 mph 1023.1mb 44f 39f
8:00 6 8 mph 1023.1mb 44f 39f
7:54 3 14 mph 1023.2mb 44f 39f
7:48 9 13 mph 1023.2mb 44f 39f
7:42 2 7 mph 1023.1mb 44f 38f
7:36 2 8 mph 1022.8mb 44f 38f
7:30 3 6 mph 1022.8mb 44f 39f
7:24 3 14 mph 1022.8mb 44f 39f
7:18 5 9 mph 1022.6mb 44f 39f
7:12 8 11 mph 1022.7mb 44f 39f
7:06 5 9 mph 1022.8mb 44f 39f
7:00 3 9 mph 1022.9mb 44f 39f
6:54 6 10 mph 1023mb 44f 39f
6:48 6 9 mph 1023.1mb 44f 39f
6:42 2 9 mph 1023mb 44f 39f
6:36 3 7 mph 1023.2mb 44f 39f
6:30 5 9 mph 1023mb 44f 39f
6:24 7 9 mph 1022.9mb 44f 39f
6:18 7 11 mph 1022.9mb 44f 39f
6:12 3 7 mph 1022.9mb 44f 39f
6:06 3 6 mph 1023.1mb 44f 39f
6:00 3 8 mph 1023.1mb 44f 39f
5:54 2 7 mph 1023.1mb 44f 39f
5:48 3 7 mph 1023.2mb 44f 39f
5:42 6 9 mph 1023.3mb 44f 39f
5:36 5 13 mph 1023.2mb 44f 39f
5:30 8 13 mph 1023mb 44f 39f
5:24 9 13 mph 1022.9mb 44f 39f
5:18 9 14 mph 1022.9mb 44f 39f
5:12 8 13 mph 1022.9mb 44f 39f
5:06 9 15 mph 1023mb 44f 39f
5:00 10 14 mph 1022.9mb 44f 39f
4:54 9 14 mph 1022.9mb 44f 39f
4:48 10 14 mph 1022.9mb 44f 39f
4:42 9 15 mph 1022.9mb 44f 39f
4:36 6 11 mph 1023mb 44f 39f
4:30 5 9 mph 1023.1mb 44f 39f
4:24 7 13 mph 1023.2mb 44f 39f
4:18 3 7 mph 1023.3mb 44f 39f
4:12 2 6 mph 1023.3mb 44f 39f
4:06 2 8 mph 1023.5mb 44f 39f
4:00 3 10 mph 1023.4mb 44f 39f
3:54 8 11 mph 1023.3mb 44f 39f
3:48 8 14 mph 1023.4mb 44f 39f
3:42 10 14 mph 1023.4mb 44f 39f
3:36 8 10 mph 1023.4mb 44f 39f
3:30 7 10 mph 1023.5mb 44f 39f
3:24 8 10 mph 1023.6mb 44f 39f
3:18 7 11 mph 1023.7mb 44f 39f
3:12 7 10 mph 1023.6mb 44f 39f
3:06 7 11 mph 1023.6mb 44f 39f
3:00 8 11 mph 1023.6mb 44f 39f
2:54 10 14 mph 1023.6mb 44f 39f
2:48 9 13 mph 1023.6mb 44f 39f
2:42 8 11 mph 1023.7mb 44f 39f
2:36 9 13 mph 1023.6mb 44f 39f
2:30 8 11 mph 1023.8mb 44f 39f
2:24 7 9 mph 1023.9mb 44f 39f
2:18 3 7 mph 1024mb 44f 40f
2:12 2 8 mph 1024.1mb 44f 40f
2:06 6 8 mph 1024mb 44f 39f
2:00 5 9 mph 1023.9mb 44f 39f
1:54 7 10 mph 1023.9mb 44f 39f
1:48 6 9 mph 1024mb 44f 39f
1:42 7 10 mph 1024.1mb 44f 39f
1:36 7 9 mph 1024mb 44f 39f
1:30 6 13 mph 1023.9mb 44f 39f
1:24 8 14 mph 1023.7mb 44f 40f
1:18 11 14 mph 1023.6mb 44f 40f
1:12 11 14 mph 1023.6mb 44f 40f
1:06 10 14 mph 1023.5mb 44f 40f
1:00 9 13 mph 1023.5mb 44f 40f
12:54 9 13 mph 1023.6mb 44f 40f
12:48 7 10 mph 1023.7mb 44f 40f
12:42 8 10 mph 1023.7mb 44f 40f
12:36 7 8 mph 1023.7mb 44f 41f
12:30 3 6 mph 1023.7mb 44f 42f
12:24 3 6 mph 1023.6mb 44f 41f
12:18 3 6 mph 1023.6mb 44f 41f
12:12 2 6 mph 1023.5mb 44f 41f
12:06 2 3 mph 1023.5mb 44f 41f
12:00 3 6 mph 1023.5mb 44f 42f
Fr 01/30 11:54 3 6 mph 1023.6mb 44f 42f
11:48 5 7 mph 1023.7mb 44f 42f
11:42 5 7 mph 1023.6mb 44f 42f
11:36 6 8 mph 1023.6mb 44f 42f
11:30 6 7 mph 1023.8mb 44f 42f
11:24 5 6 mph 1024.1mb 44f 42f
11:18 5 8 mph 1024.4mb 44f 43f
11:12 6 7 mph 1024.4mb 44f 43f
11:06 5 6 mph 1024.5mb 44f 43f
11:00 6 7 mph 1024.4mb 44f 43f
10:54 6 7 mph 1024.4mb 44f 43f
10:48 3 6 mph 1024.3mb 44f 43f
10:42 2 5 mph 1024.2mb 44f 43f
10:36 2 3 mph 1024.3mb 44f 43f
10:30  -  2 mph 1024.3mb 44f 43f
10:24 2 5 mph 1024.4mb 44f 44f
10:18 1 2 mph 1024.5mb 44f 43f
10:12 2 3 mph 1024.5mb 44f 43f
10:06 3
mph
1024.5mb 44f 44f
10:00 2 5 mph 1024.3mb 44f 44f
9:54 1 2 mph 1024.3mb 44f 44f
9:48 1 6 mph 1024.3mb 44f 44f
9:42 5 6 mph 1024.3mb 44f 44f
9:36 2
mph
1024.2mb 44f 44f
9:30 2 3 mph 1024.4mb 44f 44f
9:24 3
mph
1024.4mb 44f 44f
9:18 2
mph
1024.5mb 44f 44f
9:12  -  3 mph 1024.5mb 44f 44f
9:06 5 6 mph 1024.4mb 44f 44f
9:00 5 6 mph 1024.4mb 44f 44f
8:54 5 6 mph 1024.4mb 44f 45f
8:48 3 5 mph 1024.5mb 44f 45f
8:42  -  3 mph 1024.5mb 44f 45f
8:36 2 6 mph 1024.3mb 44f 45f
8:30 3 5 mph 1024.2mb 44f 46f
8:24 3 5 mph 1024.3mb 44f 46f
8:18 3 5 mph 1024.4mb 44f 46f
8:12 2 5 mph 1024.4mb 44f 45f
8:06 5 7 mph 1024.5mb 44f 45f
8:00 6 8 mph 1024.5mb 45f 46f
7:54 6 7 mph 1024.6mb 45f 47f
7:48 6 7 mph 1024.6mb 45f 47f
7:42 3 5 mph 1024.7mb 45f 48f
7:36 6 8 mph 1024.6mb 45f 48f
7:30 5 7 mph 1024.6mb 45f 47f
7:24 3 5 mph 1024.6mb 45f 47f
7:18 2 5 mph 1024.7mb 45f -
7:12 2 3 mph 1024.8mb 45f -
7:06 3 6 mph 1024.8mb 45f -
7:00 5 6 mph 1024.7mb 45f 47f
6:54 2 3 mph 1024.8mb 45f 46f
6:48 1 2 mph 1024.8mb 45f 47f
6:42  -  2 mph 1024.7mb 45f 46f
6:36 2 6 mph 1024.7mb 45f 46f
6:30 5
mph
1024.6mb 45f 46f
6:24 2 3 mph 1024.6mb 45f 46f
6:18 2 3 mph 1024.6mb 45f 46f
6:12 2
mph
1024.6mb 45f 46f
6:06  -  2 mph 1024.7mb 45f 47f
6:00  -  1 mph 1024.5mb 45f 47f
5:54 1 3 mph 1024.5mb 45f 47f
5:48 3
mph
1024.6mb 45f 48f
5:42 1 5 mph 1024.6mb 45f 49f
5:36 3
mph
1024.6mb 45f 49f
5:30 3
mph
1024.5mb 45f 51f
5:24 3 7 mph 1024.4mb 45f 49f
5:18 7 8 mph 1024.3mb 45f 49f
5:12 3 5 mph 1024.4mb 45f 50f
5:06 1 2 mph 1024.5mb 45f 50f
5:00  -  2 mph 1024.5mb 45f 51f
4:54 1 3 mph 1024.5mb 45f 50f
4:48  -  3 mph 1024.4mb 45f 50f
4:42 2 3 mph 1024.4mb 45f 50f
4:36 2
mph
1024.4mb 45f 50f
4:30 1 3 mph 1024.4mb 45f 50f
4:24 3
mph
1024.4mb 45f 49f
4:18 2 3 mph 1024.5mb 45f 49f
4:12  -  3 mph 1024.5mb 45f 51f
4:06 1 2 mph 1024.4mb 45f 53f
4:00 1
mph
1024.4mb 45f 52f
3:54 1 2 mph 1024.5mb 45f 52f
3:48  -  1 mph 1024.6mb 45f 53f
3:42  -  1 mph 1024.6mb 45f 52f
3:36  -  1 mph 1024.5mb 45f 52f
3:30 1 2 mph 1024.6mb 45f 51f
3:24 1 2 mph 1024.6mb 45f 51f
3:18  -  1 mph 1024.6mb 45f 53f
3:12 1 2 mph 1024.6mb 45f 50f
3:06  -  1 mph 1024.7mb 45f 50f
3:00 1 3 mph 1024.6mb 45f 47f
2:54 3 5 mph 1024.6mb 45f 46f
2:48 6
mph
1024.6mb 45f 46f
2:42 6 7 mph 1024.5mb 45f 46f
2:36 7 8 mph 1024.5mb 45f 46f
2:30 6 9 mph 1024.5mb 45f 46f
2:24 5 6 mph 1024.4mb 45f 48f
2:18 3 8 mph 1024.3mb 45f 52f
2:12 7 9 mph 1024.3mb 45f 51f
2:06 8 9 mph 1024.3mb 45f 50f
2:00 7 8 mph 1024.4mb 45f 50f
1:54 6 8 mph 1024.5mb 45f 49f
1:48 6 9 mph 1024.5mb 45f 49f
1:42 7 10 mph 1024.4mb 45f 48f
1:36 7 9 mph 1024.5mb 45f 48f
1:30 3 9 mph 1024.6mb 45f 48f
1:24 6 9 mph 1024.5mb 45f 48f
1:18 5 7 mph 1024.7mb 45f 48f
1:12 2 3 mph 1024.8mb 45f 48f
1:06  -  3 mph 1024.9mb 45f 49f
1:00 3 8 mph 1025mb 45f 47f
12:54 6 9 mph 1024.9mb 44f 46f
12:48 6 8 mph 1024.8mb 44f 46f
12:42 3 7 mph 1025mb 44f 46f
12:36 6 7 mph 1024.9mb 44f 45f
12:30 2 5 mph 1024.9mb 44f 45f
12:24 2 9 mph 1025mb 44f 44f
12:18 3 8 mph 1025.2mb 44f 44f
12:12 6 9 mph 1025.2mb 44f 44f
12:06 1 8 mph 1025.3mb 45f 44f
12:00 5 10 mph 1025.4mb 45f 44f
11:54 7 11 mph 1025.4mb 44f 44f
11:48 3 6 mph 1025.5mb 44f 44f
11:42 5 9 mph 1025.6mb 44f 44f
11:36 5 8 mph 1025.6mb 44f 44f
11:30 6 9 mph 1025.6mb 44f 44f
11:24 5 8 mph 1025.7mb 44f 44f
11:18 5 11 mph 1025.7mb 44f 43f
11:12 3 7 mph 1025.8mb 44f 43f
11:06 3 8 mph 1025.9mb 44f 43f
11:00 6 10 mph 1025.8mb 44f 42f
10:54 5 9 mph 1025.7mb 44f 42f
10:48 2 7 mph 1025.9mb 44f 42f
10:42 6 11 mph 1026mb 44f 41f
10:36 7 11 mph 1026.2mb 44f 40f
10:30 2 13 mph 1026.3mb 44f 40f
10:24 9 15 mph 1026.2mb 44f 40f
10:18 11 14 mph 1026.2mb 44f 40f
10:12 6 15 mph 1026.5mb 44f 41f
10:06 13 16 mph 1026.2mb 44f 40f
10:00 9 13 mph 1026.2mb 44f 40f
9:54 5 8 mph 1026.4mb 44f 40f
9:48 3 11 mph 1026.4mb 44f 40f
9:42 3 11 mph 1026.5mb 44f 40f
9:36 3 11 mph 1026.3mb 44f 40f
9:30 6 10 mph 1026.5mb 44f 40f
9:24 6 10 mph 1026.6mb 44f 40f
9:18 5 8 mph 1026.3mb 44f 40f
9:12 6 10 mph 1026.1mb 44f 40f
9:06 7 11 mph 1026mb 44f 40f
9:00 8 14 mph 1026mb 44f 40f
8:54 9 14 mph 1026mb 44f 40f
8:48 7 14 mph 1026.2mb 44f 40f
8:42 6 13 mph 1026.3mb 44f 40f
8:36 10 14 mph 1026.5mb 44f 40f
8:30 8 14 mph 1026.5mb 44f 39f
8:24 8 10 mph 1026.6mb 44f 39f
8:18 7 11 mph 1026.8mb 44f 39f
8:12 7 11 mph 1026.7mb 44f 39f
8:06 5 8 mph 1026.8mb 44f 39f
8:00 7 10 mph 1026.7mb 44f 39f
7:54 3 9 mph 1026.5mb 44f 39f
7:48 6 11 mph 1026.5mb 44f 40f
7:42 6 10 mph 1026.4mb 44f 39f
7:36 6 9 mph 1026.4mb 44f 39f
7:30 5 11 mph 1026.5mb 44f 39f
7:24 8 11 mph 1026.3mb 44f 39f
7:18 7 11 mph 1026.4mb 44f 39f
7:12 7 10 mph 1026.2mb 44f 39f
7:06 7 13 mph 1026.2mb 44f 39f
7:00 3 8 mph 1026.3mb 44f 39f
6:54 8 11 mph 1026.2mb 44f 39f
6:48 5 7 mph 1026.1mb 44f 39f
6:42 3 7 mph 1026.1mb 44f 39f
6:36 2 8 mph 1026mb 44f 40f
6:30 6 8 mph 1026.2mb 44f 40f
6:24 1 7 mph 1026.2mb 44f 40f
6:18 2 5 mph 1026.3mb 44f 40f
6:12 2 10 mph 1026.1mb 44f 40f
6:06 7 11 mph 1025.9mb 44f 39f
6:00 6 11 mph 1025.9mb 44f 39f
5:54 8 13 mph 1025.9mb 44f 39f
5:48 8 13 mph 1025.9mb 44f 39f
5:42 3 7 mph 1026.1mb 44f 40f
5:36 6 8 mph 1026.2mb 44f 40f
5:30 6 11 mph 1026.3mb 44f 40f
5:24 3
mph
1026.1mb 44f 41f
5:18 2 5 mph 1026.1mb 44f 41f
5:12 1 2 mph 1026mb 44f 41f
5:06 2 10 mph 1026mb 44f 41f
5:00 7 9 mph 1026mb 44f 41f
4:54 6 10 mph 1026.2mb 45f 40f
4:48 6 10 mph 1026.4mb 44f 40f
4:42 5 8 mph 1026.2mb 45f 40f
4:36 5 9 mph 1025.9mb 45f 40f
4:30 6 9 mph 1025.8mb 44f 40f
4:24 2 6 mph 1025.9mb 44f 40f
4:18 6 9 mph 1025.9mb 44f 40f
4:12 5 8 mph 1025.7mb 44f 40f
4:06 6 8 mph 1025.7mb 44f 40f
4:00 1 6 mph 1025.8mb 44f 40f
3:54 2 7 mph 1025.8mb 44f 40f
3:48 5 9 mph 1025.8mb 44f 40f
3:42 3 8 mph 1025.9mb 44f 40f
3:36 5 7 mph 1026mb 44f 41f
3:30 3 7 mph 1026mb 44f 41f
3:24 3 6 mph 1026mb 44f 41f
3:18 2 8 mph 1026.1mb 44f 41f
3:12 2 6 mph 1026.2mb 44f 42f
3:06 1 3 mph 1026.2mb 44f 42f
3:00  -  3 mph 1026.3mb 44f 42f
2:54 2 5 mph 1026.3mb 44f 42f
2:48 5 7 mph 1026.2mb 44f 43f
2:42 3 7 mph 1026.2mb 44f 43f
2:36 6 7 mph 1026.2mb 44f 43f
2:30  -  5 mph 1026.2mb 44f 43f
2:24 3 6 mph 1026.2mb 44f 43f
2:18 2 3 mph 1026.2mb 44f 43f
2:12  -  6 mph 1026.2mb 44f 43f
2:06 5 7 mph 1026.1mb 44f 43f
2:00 3 6 mph 1026mb 44f 43f
1:54 5 6 mph 1025.9mb 44f 43f
1:48 1 5 mph 1025.9mb 44f 43f
1:42 2 3 mph 1025.9mb 44f 43f
1:36 1 3 mph 1026mb 44f 43f
1:30 1 5 mph 1026mb 44f 44f
1:24 2 5 mph 1025.9mb 44f 43f
1:18 3 6 mph 1025.8mb 44f 43f
1:12 3 6 mph 1025.8mb 44f 43f
1:06 3 6 mph 1025.8mb 44f 43f
1:00 1 3 mph 1025.8mb 44f 44f
12:54 2 5 mph 1025.8mb 44f 44f
12:48  -  2 mph 1025.8mb 44f 43f
12:42  -  3 mph 1025.8mb 44f 44f
12:36  -  2 mph 1025.7mb 44f 43f
12:30  -  1 mph 1025.8mb 44f 44f
12:24 1
mph
1025.7mb 44f 44f
12:18  -  1 mph 1025.7mb 44f 43f
12:12 1 2 mph 1025.7mb 44f 43f
12:06 1 3 mph 1025.7mb 44f 44f
12:00  -  3 mph 1025.7mb 44f 44f
Do 01/29 11:54 1 2 mph 1025.7mb 44f 44f
11:48  -  5 mph 1025.8mb 44f 44f
11:42 3 8 mph 1025.8mb 44f 44f
11:36 5 8 mph 1025.8mb 44f 45f
11:30 6 10 mph 1025.8mb 44f 45f
11:24 6 14 mph 1025.8mb 44f 45f
11:18 8 14 mph 1025.8mb 44f 45f
11:12 8 15 mph 1025.8mb 44f 45f
11:06 9 14 mph 1025.7mb 44f 46f
11:00 9 15 mph 1025.6mb 44f 46f
10:54 10 13 mph 1025.5mb 44f 46f
10:48 5 8 mph 1025.5mb 44f -
10:42 1 5 mph 1025.6mb 44f -
10:36 3 5 mph 1025.6mb 44f -
10:30 1 2 mph 1025.6mb 44f 47f
10:24 2 3 mph 1025.6mb 44f 47f
10:18 1 3 mph 1025.6mb 44f 47f
10:12 1 7 mph 1025.7mb 44f 47f
10:06 2 3 mph 1025.7mb 44f 47f
10:00  -  3 mph 1025.7mb 44f 47f
9:54 3 10 mph 1025.6mb 44f 47f
9:48 6 8 mph 1025.5mb 44f 47f
9:42 2 7 mph 1025.6mb 44f 47f
9:36 2 5 mph 1025.5mb 44f 47f
9:30 1 3 mph 1025.3mb 45f 46f
9:24 2 14 mph 1025.2mb 45f 46f
9:18 7 9 mph 1025.1mb 45f 47f
9:12 7 11 mph 1025.1mb 45f 47f
9:06 6 9 mph 1025mb 45f 46f
9:00 3 6 mph 1025mb 44f 46f
8:54 3 6 mph 1025mb 44f 46f
8:48 1 6 mph 1025.1mb 44f 46f
8:42 3 7 mph 1025.1mb 44f 46f
8:36 3 7 mph 1025.1mb 44f 46f
8:30 5 7 mph 1025.2mb 44f 46f
8:24 5 7 mph 1025.2mb 44f 46f
8:18 6 7 mph 1025.3mb 44f 46f
8:12 5 9 mph 1025.3mb 44f 46f
8:06 6 9 mph 1025.2mb 45f 47f
8:00 7 9 mph 1025.2mb 45f 47f
7:54 2 7 mph 1025.3mb 45f 47f
7:48 5 7 mph 1025.3mb 45f 48f
7:42 3 7 mph 1025.3mb 45f 48f
7:36 6 8 mph 1025.3mb 45f 48f
7:30 6 10 mph 1025.4mb 45f 48f
7:24 8 11 mph 1025.4mb 45f 49f
7:18 7 9 mph 1025.6mb 45f 49f
7:12 7 8 mph 1025.7mb 45f 48f
7:06 7 9 mph 1025.7mb 45f 49f
7:00 6 7 mph 1025.7mb 45f 49f
6:54 7 8 mph 1025.7mb 45f 49f
6:48 7
mph
1025.7mb 45f 50f
6:42 6 7 mph 1025.7mb 45f 50f
6:36 3 5 mph 1025.7mb 45f 50f
6:30  -  3 mph 1025.6mb 45f 51f
6:24 1 3 mph 1025.6mb 45f 52f
6:18 2 6 mph 1025.6mb 45f 51f
6:12 3 5 mph 1025.5mb 45f 52f
6:06 2 5 mph 1025.5mb 45f 51f
6:00 2 5 mph 1025.5mb 45f 50f
5:54 1 6 mph 1025.6mb 45f 50f
5:48 5 7 mph 1025.4mb 45f 50f
5:42 3 6 mph 1025.2mb 45f 50f
5:36 1 8 mph 1025.1mb 45f 51f
5:30 5 8 mph 1025.1mb 45f 51f
5:24 6 8 mph 1025mb 45f 50f
5:18 6 8 mph 1025mb 45f 50f
5:12 6 8 mph 1024.9mb 45f 50f
5:06 6 8 mph 1024.9mb 45f 51f
5:00 6 8 mph 1024.9mb 45f 51f
4:54 7 10 mph 1024.8mb 45f 51f
4:48 3 9 mph 1024.9mb 45f 52f
4:42 7 11 mph 1024.9mb 45f 51f
4:36 6 9 mph 1024.9mb 45f 51f
4:30 5 8 mph 1024.8mb 45f 52f
4:24 5 7 mph 1024.9mb 45f 52f
4:18 6 8 mph 1024.9mb 45f 53f
4:12 2 9 mph 1025mb 45f 53f
4:06 5 9 mph 1025.1mb 45f 53f
4:00 5 7 mph 1025.1mb 44f 52f
3:54 6 8 mph 1025.1mb 44f 52f
3:48 6 8 mph 1025.2mb 44f 52f
3:42 6 11 mph 1025.2mb 44f 52f
3:36 8 11 mph 1025.3mb 44f 51f
3:30 7 11 mph 1025.3mb 44f 52f
3:24 8 10 mph 1025.3mb 44f 51f
3:18 8 10 mph 1025.3mb 44f 51f
3:12 7 10 mph 1025.3mb 44f 52f
3:06 6 10 mph 1025.3mb 44f 52f
3:00 8 13 mph 1025.3mb 44f 51f
2:54 8 13 mph 1025.2mb 44f 51f
2:48 7 10 mph 1025.2mb 44f 52f
2:42 6 11 mph 1025.1mb 44f 52f
2:36 8 13 mph 1025.1mb 44f 51f
2:30 6 13 mph 1025.2mb 44f 53f
2:24 3 6 mph 1025.2mb 44f 52f
2:18 3 8 mph 1025.2mb 44f 51f
2:12 2 7 mph 1025.2mb 44f 51f
2:06 6 9 mph 1025.2mb 44f 50f
2:00 3 7 mph 1025.2mb 44f 51f
1:54 2 6 mph 1025.3mb 44f 51f
1:48 1 5 mph 1025.3mb 44f 51f
1:42 3 6 mph 1025.4mb 44f 50f
1:36 1 6 mph 1025.5mb 44f 50f
1:30 2 6 mph 1025.5mb 44f 49f
1:24 2 6 mph 1025.6mb 44f 49f
1:18 1 7 mph 1025.7mb 44f 50f
1:12 2 6 mph 1025.8mb 44f 49f
1:06 3 14 mph 1025.9mb 44f 49f
1:00 5 9 mph 1026mb 44f 48f
12:54 6 9 mph 1026mb 44f 47f
12:48 5 8 mph 1026.1mb 44f 48f
12:42 3 8 mph 1026.1mb 44f 49f
12:36 2 5 mph 1026.1mb 44f 49f
12:30 2 7 mph 1026.2mb 44f 48f
12:24 5 7 mph 1026.3mb 44f 47f
12:18 3 8 mph 1026.4mb 44f 47f
12:12 6 11 mph 1026.5mb 44f 47f
12:06 7 10 mph 1026.6mb 44f 47f
12:00 8 11 mph 1026.6mb 44f 46f
11:54 7 10 mph 1026.8mb 44f 46f
11:48 7 10 mph 1026.9mb 44f 45f
11:42 8 10 mph 1027mb 44f 45f
11:36 7 11 mph 1027.1mb 44f 46f
11:30 7 10 mph 1027mb 44f 46f
11:24 2 5 mph 1027.1mb 44f 47f
11:18 2 6 mph 1027mb 44f 47f
11:12  -  5 mph 1027.1mb 44f 47f
11:06 5 7 mph 1027.1mb 44f 47f
11:00 1 3 mph 1027.1mb 44f 47f
10:54  -  6 mph 1027.1mb 44f 47f
10:48 1 6 mph 1027.1mb 44f 47f
10:30 1 5 mph 1027.3mb 44f 47f
10:24 3 10 mph 1027.3mb 44f 46f
10:18 7 11 mph 1027.3mb 44f 46f
10:12 8 11 mph 1027.3mb 44f 45f
10:06 5 9 mph 1027.3mb 44f 46f
10:00 5 7 mph 1027.3mb 44f 46f
9:54 3 7 mph 1027.4mb 44f 46f
9:48 3 6 mph 1027.3mb 44f 45f
9:42 6 8 mph 1027.3mb 44f 45f
9:36 2 6 mph 1027.2mb 44f 45f
9:30 1 6 mph 1027.1mb 44f 45f
9:24 2 8 mph 1027mb 44f 44f
9:18 7 10 mph 1027mb 44f 44f
9:12 6 10 mph 1026.9mb 44f 44f
9:06 8 10 mph 1026.9mb 44f 44f
9:00 2 7 mph 1026.8mb 44f 44f
8:54 6 11 mph 1026.8mb 44f 44f
8:48 7 13 mph 1026.8mb 44f 44f
8:42 7 10 mph 1026.7mb 44f 44f
8:36 8 10 mph 1026.8mb 44f 44f
8:30 6 11 mph 1026.9mb 44f 44f
8:24 6 10 mph 1026.8mb 44f 44f
8:18 3 6 mph 1026.8mb 44f 44f
8:12 2 3 mph 1026.8mb 44f 44f
8:06 1 3 mph 1026.8mb 44f 44f
8:00 2 3 mph 1026.7mb 44f 44f
7:54 3 6 mph 1026.7mb 44f 44f
7:48 3 6 mph 1026.6mb 44f 44f
7:00 3 6 mph 1026.7mb 44f 44f
6:54 3 7 mph 1026.7mb 44f 44f
6:48 3 6 mph 1026.7mb 44f 44f
6:42 2 6 mph 1026.7mb 44f 44f
6:36 3 6 mph 1026.8mb 44f 44f
6:30 3 6 mph 1026.8mb 44f 44f
6:24 5 7 mph 1026.8mb 44f 44f
6:18 2 6 mph 1026.8mb 44f 44f
6:12 2 9 mph 1026.9mb 44f 44f
6:06 2 7 mph 1026.9mb 44f 44f
6:00 5 9 mph 1026.9mb 44f 44f
5:54 2 6 mph 1026.9mb 44f 44f
5:48 2 5 mph 1026.9mb 44f 44f
5:42  -  2 mph 1027mb 44f 44f
5:36 1 5 mph 1027mb 44f 44f
5:30  -  1 mph 1027mb 44f 44f
5:24 1 3 mph 1027mb 44f 44f
5:18 5 6 mph 1027mb 44f 44f
5:12 1 5 mph 1027mb 44f 44f
5:06 3 6 mph 1027mb 44f 45f
5:00 1 6 mph 1027.1mb 44f 44f
4:54  -  2 mph 1027.2mb 44f 44f
4:48  -  2 mph 1027.2mb 44f 44f
4:42 1 2 mph 1027.1mb 44f 44f
4:36  -  6 mph 1027.1mb 44f 44f
4:30 2 7 mph 1027.1mb 44f 45f
4:24 2 5 mph 1027.1mb 44f 44f
4:18 1 3 mph 1027.2mb 44f 44f
4:12 1 2 mph 1027.2mb 44f 44f
4:06  -  1 mph 1027.3mb 44f 44f
4:00  -  2 mph 1027.3mb 44f 44f
3:54 1 2 mph 1027.3mb 44f 44f
3:48  -  5 mph 1027.3mb 44f 44f
3:42 2 3 mph 1027.4mb 44f 45f
3:36 2 6 mph 1027.4mb 44f 45f
3:30 3 5 mph 1027.3mb 44f 45f
3:24 2 3 mph 1027.3mb 44f 45f
3:18 2 6 mph 1027.4mb 44f 45f
3:12 2 3 mph 1027.4mb 44f 45f
3:06 3 6 mph 1027.3mb 44f 45f
3:00 1 2 mph 1027.3mb 44f 45f
2:54  -  7 mph 1027.3mb 44f 46f
2:48 3 9 mph 1027.2mb 44f 46f
2:42 3 6 mph 1027.2mb 44f 46f
2:36 2 8 mph 1027.3mb 44f 45f
2:30 5 9 mph 1027.3mb 44f 46f
2:24  -  5 mph 1027.3mb 44f 46f
2:18 3 5 mph 1027.3mb 44f 45f
2:12 1 6 mph 1027.4mb 44f 45f
2:06 3 7 mph 1027.2mb 44f 46f
2:00 2 6 mph 1027.2mb 44f 46f
1:54 2 5 mph 1027.2mb 44f 46f
1:48 1 8 mph 1027.2mb 44f 46f
1:42 5 7 mph 1027.2mb 44f 46f
1:36 5 6 mph 1027.1mb 44f 46f
1:30 3 5 mph 1027.1mb 44f 46f
1:24 2 5 mph 1027.1mb 44f 46f
1:18 2 6 mph 1027.1mb 44f 46f
1:12 2 3 mph 1027.1mb 44f 46f
1:06 1 3 mph 1027.1mb 44f 46f
1:00 2 3 mph 1027.2mb 44f 46f
12:54 2 3 mph 1027.2mb 44f 46f
12:48 2 3 mph 1027.2mb 44f 46f
12:42 2 3 mph 1027.2mb 44f 46f
12:36 2 3 mph 1027.2mb 44f 46f
12:30 2 3 mph 1027.2mb 44f 46f
12:24  -  3 mph 1027.2mb 44f 46f
12:18  -  5 mph 1027.3mb 44f 46f
12:12 3 5 mph 1027.3mb 44f 46f
12:06 3 7 mph 1027.3mb 44f 46f
12:00 3 6 mph 1027.3mb 44f 46f
Mi 01/28 11:54 5 6 mph 1027.4mb 44f 46f
11:48 3 5 mph 1027.4mb 44f 46f
11:42 3 6 mph 1027.4mb 44f 47f
11:36 3 5 mph 1027.4mb 44f 47f
11:30 2 5 mph 1027.4mb 44f 47f
11:24 2 5 mph 1027.4mb 44f 47f
11:18 2 3 mph 1027.4mb 44f 47f
11:12 2 3 mph 1027.5mb 44f 47f
11:06 1 2 mph 1027.5mb 44f 47f
11:00  -  3 mph 1027.4mb 44f 47f
10:54 1 2 mph 1027.4mb 44f 47f
10:48 2 3 mph 1027.3mb 44f 47f
10:42 1 5 mph 1027.3mb 44f 47f
10:36 1 2 mph 1027.3mb 44f 47f
10:30  -  2 mph 1027.3mb 44f 47f
10:24 1 2 mph 1027.3mb 44f 47f
10:18 2 3 mph 1027.3mb 44f 47f
10:12 2
mph
1027.3mb 44f 47f
10:06 2
mph
1027.3mb 44f 47f
10:00  -  3 mph 1027.4mb 44f 47f
9:54 2
mph
1027.4mb 44f 48f
9:48 2 3 mph 1027.4mb 44f 48f
9:42 1 2 mph 1027.3mb 44f 48f
9:36  -  2 mph 1027.2mb 44f 47f
9:30 1 2 mph 1027.2mb 44f 48f
9:24 1 3 mph 1027.2mb 44f 48f
9:18 2 3 mph 1027.2mb 44f 48f
9:12 1 2 mph 1027.2mb 44f 48f
9:06 2 5 mph 1027.2mb 44f 48f
9:00 2 3 mph 1027.2mb 44f 48f
8:54 2 3 mph 1027.3mb 44f 48f
8:48 2 3 mph 1027.2mb 44f 48f
8:42 2 3 mph 1027.2mb 44f 48f
8:36 3 7 mph 1027.2mb 44f 48f
8:30 3 5 mph 1027.2mb 44f 48f
8:24 3
mph
1027.2mb 44f 47f
8:18 1 2 mph 1027.2mb 44f 48f
8:12 1 5 mph 1027.2mb 44f 48f
8:06 5 8 mph 1027.2mb 44f 48f
8:00 3 7 mph 1027.1mb 44f 48f
7:54 5 8 mph 1027mb 44f 48f
7:48 3 8 mph 1027mb 44f 48f
7:42 6 7 mph 1026.9mb 44f 48f
7:36 3 6 mph 1026.9mb 44f 48f
7:30 2 5 mph 1026.9mb 44f 49f
7:24 3 7 mph 1026.9mb 44f 49f
7:18 2 6 mph 1026.9mb 44f 49f
7:12 3 7 mph 1026.9mb 44f 49f
7:06 6 8 mph 1026.9mb 44f 49f
7:00 3 6 mph 1026.9mb 44f 49f
6:54 2 3 mph 1026.9mb 44f 49f
6:48 1 3 mph 1026.9mb 44f 49f
6:42 1 2 mph 1027mb 44f 49f
6:36  -  2 mph 1026.9mb 44f 49f
6:30 3 6 mph 1026.9mb 44f 50f
6:24 2 3 mph 1027mb 44f 50f
6:18 5 6 mph 1027mb 44f 50f
6:12 1 2 mph 1027mb 44f 50f
6:06  -  1 mph 1027mb 44f 49f
6:00 1 2 mph 1027mb - -
5:54 1 2 mph 1027mb - -
5:48 1 2 mph 1027mb 45f 50f
5:42  -  2 mph 1027mb 45f 50f
5:36 1 3 mph 1027mb 45f 51f
5:30 2 5 mph 1027.1mb 45f 51f
5:24 2 3 mph 1027mb 45f 51f
5:18 3 6 mph 1026.9mb - 50f
5:12 3 7 mph 1026.9mb - 50f
5:06 3 6 mph 1026.9mb - 50f
5:00 3 6 mph 1026.9mb 45f 50f
4:54 3 6 mph 1026.9mb 45f 51f
4:48 1 5 mph 1026.9mb 45f 50f
4:42 3 6 mph 1026.9mb 45f 51f
4:36 5 8 mph 1026.8mb 45f 51f
4:30 5 8 mph 1026.8mb 45f 51f
4:24 5 6 mph 1026.8mb 45f 51f
4:18 5 8 mph 1026.8mb 45f 52f
4:12 6 9 mph 1026.8mb 45f 52f
4:06 8 11 mph 1026.8mb 45f 52f
4:00 7 11 mph 1026.9mb 45f 51f
3:54 8 11 mph 1026.9mb 45f 53f
3:48 8 10 mph 1027mb 45f 53f
3:42 7 10 mph 1027mb 45f 53f
3:36 6 9 mph 1027mb 45f 52f
3:30 7 9 mph 1027.1mb 44f 53f
3:24 6 9 mph 1027mb 44f 53f
3:18 6 8 mph 1027mb 44f 53f
3:12 6 13 mph 1026.9mb 44f 53f
3:06 8 11 mph 1026.9mb 44f 53f
3:00 8 11 mph 1026.9mb 44f 53f
2:54 8 13 mph 1026.9mb 44f 53f
2:48 9 11 mph 1026.9mb 44f 53f
2:42 9 11 mph 1027mb 44f 53f
2:36 8 11 mph 1027.1mb 44f 52f
2:30 8 10 mph 1027.1mb 44f 53f
2:24 8 11 mph 1027.1mb 44f 52f
2:18 8 10 mph 1027.2mb 44f 52f
2:12 7 8 mph 1027.3mb 44f 51f
2:06 6 8 mph 1027.3mb 44f 52f
2:00  -  mph 1027.3mb 44f -
1:54  -  mph 1027.3mb 44f -
1:48 5 8 mph 1027.4mb 44f 52f
1:42 5 9 mph 1027.4mb 44f 52f
1:36 6 9 mph 1027.4mb 44f 51f
1:30 7 10 mph 1027.4mb 44f 51f
1:24 6 8 mph 1027.5mb 44f 51f
1:18  -  mph - 44f 51f
1:12  -  mph - 44f 51f
1:06  -  mph - 44f 51f
1:00 6 8 mph 1027.7mb 44f 51f
12:54 6 7 mph 1027.7mb 44f 51f
12:48 6
mph
1027.8mb 44f 51f
12:42 3 6 mph 1027.8mb 44f 51f
12:36 2 6 mph 1027.9mb 44f 51f
12:30 5 6 mph 1028mb 44f 51f
12:24 3 7 mph 1028.1mb 44f 51f
12:18 3 7 mph 1028.1mb 44f 51f
12:12 5 8 mph 1028.1mb 44f 51f
12:06 6 7 mph 1028mb 44f 50f
12:00 5 7 mph 1028.1mb 44f 50f
11:54 3 6 mph 1028.1mb 44f 50f
11:48 2 6 mph 1028.2mb 44f 50f
11:42 5 6 mph 1028.2mb 44f 49f
11:36 5 8 mph 1028.3mb 44f 48f
11:30 3 8 mph 1028.4mb 44f 47f
11:24 6 8 mph 1028.4mb 44f 48f
11:18 5 7 mph 1028.4mb 44f 48f
11:12 6 8 mph 1028.5mb 44f 47f
11:06 7 10 mph 1028.5mb 44f 47f
11:00 8 10 mph 1028.4mb 44f 47f
10:54 8 11 mph 1028.4mb 44f 46f
10:48 8 10 mph 1028.4mb 44f 46f
10:42 6 7 mph 1028.4mb 44f 48f
10:36 5 8 mph 1028.4mb 44f 48f
10:30 6 8 mph 1028.4mb 44f 48f
10:24 5 7 mph 1028.4mb 44f 47f
10:18 5 8 mph 1028.4mb 44f 47f
10:12 3 6 mph 1028.4mb 44f 47f
10:06  -  2 mph 1028.3mb 44f 47f
10:00  -  mph 1028.3mb 44f 47f
9:54  -  mph 1028.2mb 44f 47f
9:48 2 3 mph 1028.1mb 44f 46f
9:42 2 5 mph 1028.1mb 44f 46f
9:36 2 5 mph 1028.1mb 44f 46f
9:30  -  1 mph 1028.1mb 44f 45f
9:24  -  1 mph 1028mb 44f 45f
9:18  -  3 mph 1028mb 44f 45f
9:12 1 2 mph 1027.9mb 44f 45f
9:06  -  1 mph 1028mb 44f 45f
9:00 1 2 mph 1027.9mb 44f 45f
8:54  -  3 mph 1027.9mb 44f 45f
8:48 2 3 mph 1027.8mb 44f 45f
8:42  -  1 mph 1027.7mb 44f 44f
8:36  -  2 mph 1027.7mb 44f 44f
8:30  -  3 mph 1027.7mb 44f 44f
8:24 2 6 mph 1027.7mb 44f 44f
8:18 5 7 mph 1027.6mb 44f 45f
8:12 1 2 mph 1027.6mb 44f 44f
8:06 2 8 mph 1027.5mb 44f 44f
8:00  -  mph - - 44f
7:54  -  mph - - 44f
7:48  -  2 mph 1027.3mb 44f 44f
7:42  -  2 mph 1027.3mb 44f 44f
7:36  -  1 mph 1027.3mb 44f 44f
7:30  -  1 mph 1027.3mb 44f 44f
7:24 1 2 mph 1027.3mb 44f 44f
7:18  -  1 mph 1027.3mb 44f 44f
7:12  -  2 mph 1027.3mb 44f 44f
7:06  -  3 mph 1027.2mb 44f 44f
7:00 1 2 mph 1027.1mb 44f 44f
6:54  -  2 mph 1027.1mb 44f 44f
6:48 1
mph
1027.2mb 44f 44f
6:42 1 2 mph 1027.2mb 44f 44f
6:36  -  2 mph 1027.2mb 44f 43f
6:30 1 3 mph 1027.2mb 44f 43f
6:24 3 8 mph 1027.1mb 44f 43f
6:18 7 9 mph 1027.1mb 44f 43f
6:12 7 10 mph 1027.1mb 44f 43f
6:06 9 13 mph 1027.1mb 44f 43f
6:00 9 13 mph 1027.1mb 44f 43f
5:54 8 13 mph 1027mb 44f 44f
5:48 8 13 mph 1027mb 44f 44f
5:42 7 14 mph 1027mb 44f 44f
5:36 8 13 mph 1027mb 44f 44f
5:30 7 11 mph 1027mb 44f 44f
5:24 8 11 mph 1027mb 44f 43f
5:18 8 10 mph 1027mb 44f 43f
5:12 7 9 mph 1027mb 44f 43f
5:06 2 6 mph 1027mb 44f 44f
5:00 3 6 mph 1026.9mb 44f 44f
4:54 3 6 mph 1026.9mb 44f 44f
4:48 1 5 mph 1027mb 44f 44f
4:42 3 8 mph 1027mb 44f 44f
4:36 1 2 mph 1027mb 44f 43f
4:30 1 2 mph 1027mb 44f 43f
4:24  -  2 mph 1027mb 44f 43f
4:18 1 2 mph 1027.1mb 44f 43f
4:12  -  1 mph 1027mb 44f 43f
4:06  -  1 mph 1027.1mb 44f 43f
4:00  -  2 mph 1027.2mb 44f 43f
3:54 1 2 mph 1027.2mb 44f 43f
3:48 1 2 mph 1027.2mb 44f 43f
3:42 1 2 mph 1027.2mb 44f 43f
3:36 2
mph
1027.2mb 44f 44f
3:30 2 3 mph 1027.3mb 44f 44f
3:24 2 7 mph 1027.3mb 44f 45f
3:18 3 6 mph 1027.3mb 44f 45f
3:12 5 6 mph 1027.3mb 44f 46f
3:06 3 8 mph 1027.4mb 44f 46f
3:00 5 8 mph 1027.4mb 44f 46f
2:54 6 7 mph 1027.5mb 44f 46f
2:48 5 8 mph 1027.5mb - -
2:42 7 9 mph 1027.5mb - -
2:36 6 8 mph 1027.5mb - -
2:30 5 8 mph 1027.5mb 44f 46f
2:24 3 6 mph 1027.5mb 44f 46f
2:18 5 7 mph 1027.5mb 44f 46f
2:12 6 7 mph 1027.4mb 44f 46f
2:06 5 6 mph 1027.3mb 44f 46f
2:00 5 7 mph 1027.2mb 44f 46f
1:54 5 7 mph 1027.1mb 44f 46f
1:48 2 3 mph 1027.1mb 44f 46f
1:42 1 3 mph 1027mb 44f 46f
1:36 3 5 mph 1027mb 44f 46f
1:30 3 5 mph 1026.9mb 44f 46f
1:24 3 5 mph 1026.8mb 44f 46f
1:18 3 5 mph 1026.8mb 44f 47f
1:12 3 5 mph 1026.7mb 44f 46f
1:06 2 3 mph 1026.7mb 44f 47f
1:00 3 5 mph 1026.6mb 44f 47f
12:54 5 6 mph 1026.7mb 44f 47f
12:48 2 6 mph 1026.6mb 44f 47f
12:42 2 5 mph 1026.6mb 44f 47f
12:36 2 3 mph 1026.6mb 44f 46f
12:30 2 3 mph 1026.5mb 44f 46f
12:24 3 5 mph 1026.5mb 44f 47f
12:18 2 5 mph 1026.4mb 44f 46f
12:12 3 5 mph 1026.4mb 44f 47f
12:06 3 5 mph 1026.4mb 44f 47f
12:00 2 6 mph 1026.4mb 44f 47f
Di 01/27 11:54 3 6 mph 1026.4mb 44f 47f
11:48 5 6 mph 1026.4mb 44f 47f
11:42  -  1 mph 1026.4mb 44f 46f
11:36  -  2 mph 1026.4mb 44f 46f
11:30 1 2 mph 1026.3mb 44f 46f
11:24 1
mph
1026.3mb 44f 47f
11:18 2 3 mph 1026.2mb 44f 47f
11:12 1 3 mph 1026.2mb 44f 47f
11:06 3 5 mph 1026.1mb 44f 47f
11:00 2 6 mph 1026.1mb 44f 47f
10:54 2 5 mph 1026mb 44f 47f
10:48 3 5 mph 1025.9mb 44f 47f
10:42 2 5 mph 1025.8mb 44f 47f
10:36 3
mph
1025.7mb 44f 47f
10:30 2 5 mph 1025.7mb 44f 47f
10:24 3 5 mph 1025.7mb 44f 47f
10:18 2 5 mph 1025.6mb 44f 47f
10:12 2 5 mph 1025.6mb 44f 47f
10:06 3 5 mph 1025.5mb 44f 47f
10:00 1 3 mph 1025.5mb 44f 47f
9:54 3 7 mph 1025.5mb 44f 48f
9:48 5 6 mph 1025.4mb 44f 48f
9:42 3 5 mph 1025.4mb 44f 48f
9:36 5 8 mph 1025.4mb 44f 47f
9:30 2
mph
1025.3mb 44f 47f
9:24 1 3 mph 1025.1mb 44f 48f
9:18 1 2 mph 1025.1mb 44f 47f
9:12 2
mph
1024.9mb 44f 48f
9:06 2 3 mph 1024.9mb 44f 47f
9:00 2
mph
1024.8mb 44f 47f
8:54 2
mph
1024.8mb 44f 47f
8:48 1
mph
1024.8mb 44f 47f
8:42  -  1 mph 1024.7mb 44f 47f
8:36  -  1 mph 1024.6mb 44f 47f
8:30 1 2 mph 1024.6mb 44f 47f
8:24 1 5 mph 1024.6mb 44f 47f
8:18 3 5 mph 1024.5mb 44f 48f
8:12 2
mph
1024.4mb 44f 47f
8:06 2 3 mph 1024.3mb 44f 47f
8:00 2 3 mph 1024.2mb 44f 47f
7:54 3 5 mph 1024.2mb 44f 47f
7:48 2 3 mph 1024.1mb 44f 46f
7:42 2 5 mph 1024mb 44f 47f
7:36 2 5 mph 1024mb 44f 47f
7:30 3 5 mph 1023.9mb 44f 47f
7:24 3 6 mph 1023.8mb 44f 47f
7:18 5 6 mph 1023.7mb 44f 47f
7:12 2 3 mph 1023.7mb 44f 47f
7:06  -  mph 1023.6mb 44f 48f
7:00  -  1 mph 1023.6mb 44f 48f
6:54  -  1 mph 1023.5mb 44f 48f